Weather History for PHTO - March, 2013

Change the Weather History Date:

Tuesday, March 19, 2013

  Actual Average Record
Temperature  
Mean Temperature 70 °F 72 °F  
Max Temperature 77 °F 79 °F 84 °F (1972)
Min Temperature 62 °F 65 °F 56 °F (1971)
Degree Days  
Heating Degree Days 0 0  
Month to date heating degree days 0 0  
Since 1 July heating degree days 0 0  
Cooling Degree Days 5 7  
Month to date cooling degree days 115 130  
Year to date cooling degree days 487 500  
Growing Degree Days 20 (Base 50)    
Moisture  
Dew Point 62 °F    
Average Humidity 72    
Maximum Humidity 90    
Minimum Humidity 54    
Precipitation  
Precipitation 0.11 in 0.45 in 5.54 in (1991)
Month to date precipitation 1.68 8.05  
Year to date precipitation 33.18 26.87  
Snow  
Snow 0.00 in - - ()
Month to date snowfall 0.0  
Since 1 July snowfall 0.0  
Snow Depth 0.00 in    
Sea Level Pressure  
Sea Level Pressure 30.00 in    
Wind  
Wind Speed 5 mph (SSW)    
Max Wind Speed 14 mph    
Max Gust Speed 20 mph    
Visibility 10 miles    
Events Rain    
T = Trace of Precipitation, MM = Missing Value Source: NWS Daily Summary

Daily Weather History Graph

Daily Weather History Graph

Search for Another Location

Airport or City:

Trip Planner

Search our weather history database for the weather conditions in past years. The results will help you decide how hot, cold, wet, or windy it might be!

Date:

Astronomy

Mar. 19, 2013 Rise Set
Actual Time 6:24 AM HST 6:31 PM HST
Civil Twilight 6:02 AM HST 6:53 PM HST
Nautical Twilight 5:37 AM HST 7:18 PM HST
Astronomical Twilight 5:11 AM HST 7:44 PM HST
Moon 12:06 PM HST (3/19) 12:43 AM HST (3/19)
Length of Visible Light 12h 50m
Length of Day
12h 06m
First Quarter, 52% of the Moon is Illuminated
Mar 19
First Quarter
Mar 26
Full
Apr 2
Last Quarter
Apr 9
New
Apr 18
First Quarter

Hourly Weather History & Observations

Time (HST) Temp. Dew Point Humidity Pressure Visibility Wind Dir Wind Speed Gust Speed Precip Events Conditions
12:53 AM 66.0 °F 62.1 °F 87% 30.00 in 10.0 mi Calm Calm - N/A   Overcast
1:53 AM 66.0 °F 62.1 °F 87% 29.99 in 10.0 mi SW 3.5 mph - N/A   Partly Cloudy
2:53 AM 64.9 °F 61.0 °F 87% 29.97 in 10.0 mi SW 6.9 mph - N/A   Clear
3:53 AM 64.9 °F 59.0 °F 81% 29.97 in 10.0 mi SW 8.1 mph - N/A   Overcast
4:53 AM 64.0 °F 57.0 °F 78% 29.97 in 10.0 mi WSW 8.1 mph - N/A   Clear
5:53 AM 62.1 °F 54.0 °F 75% 29.99 in 10.0 mi SW 9.2 mph - N/A   Clear
6:53 AM 62.1 °F 52.0 °F 70% 30.00 in 10.0 mi WSW 9.2 mph - N/A   Partly Cloudy
7:53 AM 66.0 °F 53.1 °F 63% 30.02 in 10.0 mi SW 6.9 mph - N/A   Partly Cloudy
8:53 AM 72.0 °F 55.0 °F 55% 30.03 in 10.0 mi SW 5.8 mph - N/A   Partly Cloudy
9:53 AM 75.9 °F 57.9 °F 54% 30.02 in 10.0 mi South 4.6 mph - N/A   Scattered Clouds
10:53 AM 77.0 °F 62.1 °F 60% 30.02 in 10.0 mi East 10.4 mph - N/A   Mostly Cloudy
11:53 AM 75.0 °F 62.1 °F 64% 30.01 in 10.0 mi East 11.5 mph - N/A   Mostly Cloudy
12:53 PM 75.0 °F 64.0 °F 69% 29.99 in 10.0 mi ENE 10.4 mph - N/A   Mostly Cloudy
1:53 PM 72.0 °F 64.9 °F 78% 29.98 in 4.0 mi North 3.5 mph - 0.01 in Rain Rain
4:53 PM 72.0 °F 66.0 °F 81% 29.97 in 10.0 mi Calm Calm - 0.00 in   Overcast
5:53 PM 71.1 °F 64.9 °F 81% 29.97 in 10.0 mi North 3.5 mph - N/A   Overcast
6:53 PM 71.1 °F 66.0 °F 84% 29.99 in 10.0 mi Calm Calm - N/A   Overcast
7:53 PM 71.1 °F 66.0 °F 84% 30.01 in 10.0 mi Calm Calm - N/A   Overcast
8:53 PM 69.1 °F 66.0 °F 90% 30.04 in 10.0 mi ESE 4.6 mph - N/A   Overcast
9:29 PM 70.0 °F 66.9 °F 90% 30.05 in 10.0 mi Calm Calm - 0.00 in Rain Light Rain
9:53 PM 70.0 °F 64.9 °F 84% 30.05 in 10.0 mi Calm Calm - 0.00 in   Overcast
10:53 PM 68.0 °F 64.9 °F 90% 30.04 in 10.0 mi Calm Calm - N/A   Scattered Clouds
11:53 PM 66.9 °F 64.0 °F 90% 30.04 in 10.0 mi WSW 3.5 mph - N/A   Mostly Cloudy